Lincoln, NE

11:43 AM CST on November 15, 2019 (GMT -0600)
Lincoln Municipal

Weather History for KLNK - August, 2019

Change the Weather History Date:

Saturday, August 17, 2019

  Actual Average Record
Temperature  
Mean Temperature 78 °F 76 °F  
Max Temperature 87 °F 87 °F 107 °F (1936)
Min Temperature 68 °F 64 °F 44 °F (2012)
Degree Days  
Heating Degree Days 0 0  
Month to date heating degree days 0 0  
Since 1 June heating degree days 6 17  
Since 1 July heating degree days 0 1  
Cooling Degree Days 13 11  
Month to date cooling degree days 197 196  
Year to date cooling degree days 943 907  
Since 1 June cooling degree days 871 828  
Growing Degree Days 28 (Base 50)    
Moisture  
Dew Point 68 °F    
Average Humidity 74    
Maximum Humidity 90    
Minimum Humidity 57    
Precipitation  
Precipitation 0.00 in 0.11 in 2.54 in (1905)
Month to date precipitation 1.90 1.85  
Year to date precipitation 23.77 19.94  
Snow  
Snow 0.00 in 0.00 in 0.00 in (2006)
Month to date snowfall 0.0 0.0  
Since 1 June snowfall 0.0 0.0  
Since 1 July snowfall 0.0 0.0  
Snow Depth 0.00 in    
Sea Level Pressure  
Sea Level Pressure 29.76 in    
Wind  
Wind Speed 10 mph (SSE)    
Max Wind Speed 20 mph    
Max Gust Speed 30 mph    
Visibility 9 miles    
Events      
T = Trace of Precipitation, MM = Missing Value Source: NWS Daily Summary

Daily Weather History Graph

Daily Weather History Graph

Search for Another Location

Airport or City:

Astronomy

Aug. 17, 2019 Rise Set
Actual Time 6:38 AM CDT 8:22 PM CDT
Civil Twilight 6:09 AM CDT 8:51 PM CDT
Nautical Twilight 5:34 AM CDT 9:27 PM CDT
Astronomical Twilight 4:55 AM CDT 10:05 PM CDT
Moon 9:50 PM CDT (8/17) 8:29 AM CDT (8/17)
Length of Visible Light 14h 42m
Length of Day
13h 43m
Waning Gibbous, 96% of the Moon is Illuminated
Aug 17
Waning Gibbous
Aug 23
Last Quarter
Aug 30
New
Sep 5
First Quarter
Sep 13
Full

Hourly Weather History & Observations

Time (CDT) Temp. Heat Index Dew Point Humidity Pressure Visibility Wind Dir Wind Speed Gust Speed Precip Events Conditions
12:54 AM 71.1 °F - 68.0 °F 90% 29.79 in 6.0 mi NNE 6.9 mph - N/A   Mostly Cloudy
1:54 AM 71.1 °F - 68.0 °F 90% 29.77 in 7.0 mi NNE 3.5 mph - N/A   Mostly Cloudy
2:21 AM 72.0 °F - 68.0 °F 87% 29.77 in 8.0 mi East 5.8 mph - N/A   Mostly Cloudy
2:36 AM 72.0 °F - 68.0 °F 87% 29.79 in 8.0 mi East 5.8 mph - N/A   Overcast
2:43 AM 72.0 °F - 68.0 °F 87% 29.78 in 8.0 mi East 8.1 mph - N/A   Overcast
2:50 AM 71.6 °F - 68.0 °F 88% 29.79 in 8.0 mi East 6.9 mph - N/A   Overcast
2:54 AM 72.0 °F - 68.0 °F 87% 29.75 in 8.0 mi ESE 6.9 mph - N/A   Overcast
3:10 AM 71.1 °F - 68.0 °F 90% 29.81 in 7.0 mi SE 15.0 mph - N/A   Scattered Clouds
3:24 AM 73.0 °F - 69.1 °F 87% 29.84 in 9.0 mi SE 15.0 mph - N/A   Mostly Cloudy
3:31 AM 73.0 °F - 69.1 °F 87% 29.82 in 9.0 mi SE 16.1 mph 28.8 mph N/A   Mostly Cloudy
3:43 AM 72.0 °F - 64.9 °F 78% 29.81 in 10.0 mi SSE 15.0 mph 27.6 mph N/A   Overcast
3:51 AM 71.6 °F - 64.4 °F 78% 29.82 in 10.0 mi SSE 11.5 mph - N/A   Overcast
3:54 AM 71.1 °F - 64.9 °F 81% 29.80 in 10.0 mi SSE 17.3 mph - N/A   Mostly Cloudy
4:54 AM 70.0 °F - 64.9 °F 84% 29.80 in 10.0 mi ENE 8.1 mph - N/A   Partly Cloudy
5:54 AM 69.1 °F - 64.9 °F 87% 29.79 in 10.0 mi South 4.6 mph - N/A   Clear
6:54 AM 68.0 °F - 64.9 °F 90% 29.80 in 10.0 mi South 8.1 mph - N/A   Scattered Clouds
7:01 AM 68.0 °F - 64.9 °F 90% 29.83 in 10.0 mi South 11.5 mph - N/A   Mostly Cloudy
7:15 AM 68.0 °F - 64.9 °F 90% 29.83 in 10.0 mi South 10.4 mph - N/A   Scattered Clouds
7:54 AM 69.1 °F - 64.9 °F 87% 29.79 in 10.0 mi South 11.5 mph - N/A   Partly Cloudy
8:54 AM 70.0 °F - 66.0 °F 87% 29.79 in 10.0 mi South 9.2 mph - N/A   Clear
9:54 AM 75.0 °F - 66.0 °F 73% 29.78 in 10.0 mi SSW 8.1 mph - N/A   Clear
10:54 AM 79.0 °F - 66.0 °F 64% 29.78 in 10.0 mi South 8.1 mph - N/A   Clear
11:54 AM 82.0 °F 84.5 °F 66.9 °F 60% 29.78 in 10.0 mi South 11.5 mph - N/A   Clear
12:54 PM 82.0 °F 84.9 °F 68.0 °F 62% 29.78 in 10.0 mi South 13.8 mph - N/A   Clear
1:54 PM 84.0 °F 88.4 °F 70.0 °F 63% 29.75 in 10.0 mi SSE 10.4 mph - N/A   Partly Cloudy
2:54 PM 86.0 °F 90.7 °F 70.0 °F 59% 29.73 in 10.0 mi South 16.1 mph - N/A   Clear
3:54 PM 86.0 °F 91.5 °F 71.1 °F 61% 29.71 in 10.0 mi South 13.8 mph - N/A   Clear
4:54 PM 87.1 °F 92.8 °F 71.1 °F 59% 29.69 in 10.0 mi South 12.7 mph - N/A   Clear
5:54 PM 86.0 °F 91.5 °F 71.1 °F 61% 29.69 in 10.0 mi South 11.5 mph 24.2 mph N/A   Clear
6:54 PM 84.9 °F 90.1 °F 71.1 °F 63% 29.68 in 10.0 mi South 11.5 mph 23.0 mph N/A   Clear
7:54 PM 82.9 °F 88.0 °F 72.0 °F 69% 29.68 in 10.0 mi South 9.2 mph - N/A   Clear
8:54 PM 80.1 °F 84.2 °F 73.0 °F 79% 29.68 in 10.0 mi South 10.4 mph - N/A   Clear
9:54 PM 80.1 °F 83.8 °F 72.0 °F 76% 29.66 in 10.0 mi SSE 12.7 mph - N/A   Clear
10:54 PM 79.0 °F - 72.0 °F 79% 29.69 in 10.0 mi South 12.7 mph - N/A   Clear
11:54 PM 78.1 °F - 72.0 °F 81% 29.67 in 10.0 mi South 11.5 mph - N/A   Clear